User: anonymous   Login
Location: Unspecified
(0.0000°N, 0.0000°E)
Time: 16:53:09
(UTC+00:00)
Language:

CANX 3A (UNIBRITE) - Orbit

View from above orbital plane
View from above orbital plane
View from above satellite
View from above satellite

Ground track
Ground track

The orbit data is extracted from the following two-line orbital elements,

1 39092U 13009G   14296.59266371  .00000320  00000-0  12880-3 0  5158
2 39092 098.6134 130.7628 0008362 288.6143 071.4134 14.34618617 86728
Epoch (UTC): 23 October 2014 14:13:26
Eccentricity: 0.0008362
inclination: 98.6134°
perigee height: 770 km
apogee height: 782 km
right ascension of ascending node: 130.7628°
argument of perigee: 288.6143°
revolutions per day: 14.34618617
mean anomaly at epoch: 71.4134°
orbit number at epoch: 8672

The dashed part of the orbit path shows where the satellite is in the earth's shadow,  

DLR